Location: Aalen
(48.8330°N, 10.1000°E)
Time: 22:33:11
(UTC+02:00)

Transit 2A - Pass Details

Date: 03 August 2021
Orbit: 594 x 964 km, 66.7° (Epoch: 27 September)

Event Time Altitude Azimuth Distance (km) Brightness Sun altitude
Rises 13:02:48 0° 325° (NW) 3,120 8.9 58.2°
Reaches altitude 10° 13:05:54 10° 346° (NNW) 2,272 8.2 58.3°
Maximum altitude 13:09:17 17° 27° (NNE) 1,907 8.0 58.4°
Drops below altitude 10° 13:12:51 10° 67° (ENE) 2,432 8.6 58.4°
Sets 13:16:21 0° 87° (E) 3,442 9.4 58.5°
